DECAYED
Showing default

SZ-19, 61683 (Decayed)

Orbit data source: Space-Track

SZ-19, 61683 was a payload satellite owned by ZZHGB (CN) in LEO that was launched on Tue, 29 Oct 2024 UTC via a CHANG ZHENG 2F launch vehicle from the Jiuquan Satellite Launch Center, China (JSC). Payload-class satellites include a variety of spacecraft equipped with specific instruments for various scientific and technological missions. These include communications satellites like Starlink; space stations such as the ISS; scientific satellites like the Hubble; Earth observation satellites from companies like Planet Labs, Umbra, and HawkEye 360; GPS; miniature CubeSats for education and research; and military/defense satellites.

Loading next visibility...
Identifier
61683, 2024-194A
Orbit
Decayed
Last TLE update
1 week ago
Origin
Manufacturer
CALT
Mission
Decayed Civil Spaceship
Bus & Motor
SHENZHOU, Unknown motor
Mass
~8,100 kg wet, 3,258 kg dry
Launch date (UTC)
2024-10-29 (6 months ago)
Launch vehicle
CHANG ZHENG 2F
Launch site
Jiuquan Satellite Launch Center, China (JSC)
Object type
Payload
Rocket body
Debris
Shape & HBR
Cyl + 2 Pan, 17 m
Radar Cross Section
39.234 m², Large (>1 m²)

Expand to show TLE details & history

TLE from 1 week ago
0 SZ-19
1 61683U 24194A   25122.74700472  .00000615  00000-0  11001-4 0  9996
2 61683  41.4751 296.9761 0005180 287.8657  72.1617 15.61260438227679
Epoch: 2025-05-02T17:55Z
Definitive object data (Epoch: 2025-05-02T17:55:41.207Z)
Latitude
-0.00003°
Longitude
167.15519°
Altitude
382.544 km
Speed
7.683 km/s
True Right ascension
19h 47m 54s
True Declination
0° 00' 00"
Sunlit
Object was in daylight at TLE epoch
Visualization observer readout
Visualization observer readout
Orbital elements
Apogee altitude
389.752 km
Perigee altitude
382.744 km
Semi-major axis
6,764.385 km
Eccentricity
0.000518
Inclination
41.4751°
RAAN
296.9761°
Arg. of periapsis
287.8657°
True anomaly
72.21822°
Mean anomaly
72.1617°
Eccentric anomaly
72.18996°
Mean motion
3.90122 °/min
BSTAR
0.000011001
Orbital period
92.28 mins
Loading maneuver chart data...
Loading SW <> Apogee altitude chart data...
Loading historical data...
Loading historical data...
Loading historical data...
Loading historical data...
Loading historical data...
Loading historical data...
Loading historical data...
Other satellites on launch #194 in the year 2024 (2024-10-29 UTC)

SZ-19 Visibility forecast

Observer location: undefined°, undefined°

Span
Click to sort rows by Start time (UTC) header in descending order
Start Az.
Max El. time (UTC)
Max El. Az.
Max El.
End time (UTC)
End Az.
5 mins2025-05-10 11:54:38.254Z221.661° SW2025-05-10 11:57:38.254Z137.16° SSE29.463°2025-05-10 11:59:38.254Z91.03° ESE
4 mins2025-05-10 13:32:38.254Z271.86° WNW2025-05-10 13:33:38.254Z297.126° NW41.742°2025-05-10 13:36:38.254Z76.396° E
4 mins2025-05-10 15:09:38.254Z289.423° WNW2025-05-10 15:10:38.254Z318.385° NNW42.25°2025-05-10 15:13:38.254Z93.63° ESE
|